Location: B
(0.0000°N, 0.0000°E)
Time: 23:35:57
(UTC+01:00)

Amateur Radio Satellites - All Passes

Search period start: 31 January 2015 23:05
Search period end: 01 February 2015 23:05
Location: B, 0.0000°N, 0.0000°E

Satellite Date Start Highest point End Downlink Frequencies (MHz)
Time Altitude Azimuth
AIST 1 31 Jan 23:10:37 23:14:41 38° 86° (E) 23:18:49
POPSAT HIP 1 31 Jan 23:13:54 23:17:45 35° 101° (E) 23:21:40 437.405
DUCHIFAT 1 31 Jan 23:15:00 23:18:53 36° 101° (E) 23:22:48 145.980
50 SAT 31 Jan 23:26:06 23:30:13 85° 258° (WSW) 23:34:21 437.505
UNISAT 6 31 Jan 23:27:32 23:31:48 70° 281° (WNW) 23:36:02 437.425
UWE-3 31 Jan 23:33:31 23:36:50 19° 260° (W) 23:40:01 435.000/436.395/437.385
AISAT 31 Jan 23:35:06 23:39:28 59° 259° (WSW) 23:43:49 437.250
ESTCUBE 1 31 Jan 23:46:04 23:50:31 64° 79° (ENE) 23:54:57 437.505/2401.250
NANOSAT C BR1 31 Jan 23:49:51 23:54:04 65° 281° (W) 23:58:17 145.865
JUGNU 31 Jan 23:56:53 00:02:47 59° 21° (NNE) 00:08:42 437.505
CUBEBUG 1 01 Feb 00:02:32 00:06:52 81° 258° (WSW) 00:11:11 437.445
VELOX 1 01 Feb 00:02:41 00:06:23 25° 259° (W) 00:09:57 145.980
ANTELSAT 01 Feb 00:04:45 00:08:01 21° 280° (W) 00:11:08 437.575/2403.000
QB50P2 01 Feb 00:05:58 00:09:55 36° 281° (W) 00:13:49 145.880/145.840
TISAT 1 01 Feb 00:07:32 00:10:06 16° 80° (E) 00:12:52 437.305
TIGRISAT 01 Feb 00:11:19 00:14:14 17° 280° (W) 00:16:58 435.000
BUGSAT 1 01 Feb 00:12:29 00:16:31 41° 281° (W) 00:20:31 437.445
QB50P1 01 Feb 00:14:38 00:18:20 28° 281° (W) 00:21:56 145.935-145.965
HUMSAT D 01 Feb 00:15:40 00:17:38 12° 260° (W) 00:19:19 437.325/437.525
GONETS M04 01 Feb 00:29:50 00:35:43 21° 96° (E) 00:42:07
POLYITAN 1 01 Feb 00:32:10 00:34:56 16° 280° (W) 00:37:29 437.675
SRMSAT 01 Feb 00:42:04 00:47:33 38° 19° (NNE) 00:53:05 437.500
BEESAT 2 01 Feb 00:50:30 00:54:22 48° 112° (ESE) 00:58:17 435.950
AIST 2 01 Feb 01:00:50 01:03:50 20° 113° (ESE) 01:07:00 435.215
BEESAT 3 01 Feb 01:01:47 01:05:46 89° 119° (ESE) 01:09:49 437.485
SPROUT 01 Feb 01:13:40 01:17:49 47° 259° (W) 01:21:57 437.525
TISAT 1 01 Feb 01:42:45 01:45:50 19° 260° (W) 01:48:45 437.305
SWISSCUBE 01 Feb 01:42:55 01:47:16 36° 78° (ENE) 01:51:38 437.505
JUGNU 01 Feb 01:46:04 01:51:53 51° 201° (SSW) 01:57:41 437.505
BEESAT 01 Feb 01:57:53 02:02:32 52° 78° (ENE) 02:07:10 436.000
ITUPSAT 1 01 Feb 02:03:25 02:08:08 61° 78° (ENE) 02:12:50 437.325
Gurwin Techsat 1B 01 Feb 02:11:57 02:14:09 13° 101° (E) 02:16:45 435.225
Oscar 19 01 Feb 02:13:50 02:18:57 87° 282° (WNW) 02:24:05 437.125/150
GONETS M04 01 Feb 02:24:04 02:32:30 48° 274° (W) 02:40:45
SRMSAT 01 Feb 02:30:51 02:36:50 80° 202° (SSW) 02:42:49 437.500
ITAMSAT 1 01 Feb 02:36:07 02:41:03 44° 102° (ESE) 02:46:03 435.822/435.867
AIST 2 01 Feb 02:39:45 02:42:20 15° 294° (WNW) 02:44:45 435.215
PCSat 01 Feb 02:40:38 02:45:10 29° 111° (ESE) 02:49:50 145.827
STARS 01 Feb 03:00:19 03:03:55 25° 79° (E) 03:07:38 437.465
KKS-1 01 Feb 03:12:01 03:16:27 67° 78° (ENE) 03:20:54 437.445
AUBIESAT-1 01 Feb 03:19:12 03:21:51 16° 78° (ENE) 03:24:35 437.475
SWISSCUBE 01 Feb 03:23:34 03:25:03 11° 260° (W) 03:26:07 437.505
O/OREOS (USA 219) 01 Feb 03:31:21 03:35:56 78° 75° (ENE) 03:40:31 437.305
JUGNU 01 Feb 03:36:49 03:41:16 21° 195° (SSW) 03:45:37 437.505
HORYU 2 01 Feb 03:39:43 03:43:44 36° 101° (ESE) 03:47:50 437.375
AO-7 01 Feb 03:47:56 03:54:17 26° 104° (ESE) 04:01:01 29.400- 29.500
Gurwin Techsat 1B 01 Feb 03:49:07 03:54:03 39° 282° (WNW) 03:58:57 435.225
VERMONT LUNAR 01 Feb 03:51:15 03:53:47 19° 139° (SE) 03:56:23 437.305
DANDE 01 Feb 03:51:47 03:58:00 38° 93° (E) 04:05:33 436.750
RS-15 01 Feb 04:01:12 04:12:30 81° 112° (ESE) 04:23:25 29.354- 29.394
CUSAT 1 01 Feb 04:05:29 04:12:22 64° 94° (E) 04:20:35 437.405
ITAMSAT 1 01 Feb 04:18:59 04:20:30 11° 280° (W) 04:21:33 435.822/435.867
SRMSAT 01 Feb 04:21:00 04:26:11 30° 198° (SSW) 04:31:19 437.500
M-CUBED/EXP-1 PRIME 01 Feb 04:21:26 04:25:53 51° 254° (WSW) 04:29:57 437.505
PCSat 01 Feb 04:24:41 04:28:30 19° 292° (WNW) 04:32:03 145.827
STARS 01 Feb 04:37:55 04:40:18 14° 260° (W) 04:42:26 437.465
AUBIESAT-1 01 Feb 04:53:09 04:56:39 22° 254° (WSW) 04:59:50 437.475
PHONESAT 2.4 01 Feb 05:05:53 05:09:26 63° 137° (SE) 05:12:59 2401.200-2431.200
MOZHAYETS 4 01 Feb 05:11:03 05:15:27 45° 79° (E) 05:19:51
JAS-2 01 Feb 05:23:18 05:29:58 84° 101° (E) 05:37:30 435.910
VERMONT LUNAR 01 Feb 05:28:59 05:31:49 23° 318° (NW) 05:34:35 437.305
JUGNU 01 Feb 05:29:24 05:31:08 11° 187° (S) 05:32:48 437.505
DANDE 01 Feb 05:35:37 05:41:29 26° 280° (W) 05:47:52 436.750
AO-7 01 Feb 05:39:18 05:46:58 41° 285° (WNW) 05:54:32 29.400- 29.500
CUSAT 1 01 Feb 05:51:29 05:55:50 15° 282° (WNW) 05:59:48 437.405
PRISM 01 Feb 06:05:35 06:06:22 11° 80° (E) 06:07:28 437.425
SRMSAT 01 Feb 06:12:55 06:15:59 14° 191° (S) 06:18:57 437.500
RS-15 01 Feb 06:19:35 06:25:10 14° 297° (WNW) 06:29:27 29.354- 29.394
Cubesat XI-IV 01 Feb 06:40:29 06:45:41 52° 102° (ESE) 06:50:56 437.490
STRAND 1 01 Feb 06:50:41 06:54:36 23° 79° (E) 06:58:41 437.568
YUBILEINY 01 Feb 06:59:11 07:06:17 29° 85° (E) 07:13:44 435.215
CUTE-I 01 Feb 06:59:26 07:04:48 87° 102° (ESE) 07:10:12 437.470
CUBESAT XI-V 01 Feb 07:11:30 07:16:06 70° 78° (ENE) 07:20:40 437.345
ISS 01 Feb 07:35:29 07:38:20 26° 234° (SW) 07:41:08 145.825
PRISM 01 Feb 07:38:15 07:41:49 27° 259° (WSW) 07:45:16 437.425
HO-68 01 Feb 08:19:04 08:23:05 17° 103° (ESE) 08:27:37 435.675
STRAND 1 01 Feb 08:29:54 08:33:42 20° 259° (W) 08:37:18 437.568
SEEDS 01 Feb 08:47:34 08:49:34 14° 100° (E) 08:51:51 437.485
SO-50 01 Feb 08:53:14 08:57:33 62° 113° (ESE) 09:01:59 436.795
YUBILEINY 01 Feb 08:55:03 09:02:59 36° 265° (W) 09:10:43 435.215
JUGNU 01 Feb 09:07:43 09:11:18 16° 167° (SSE) 09:14:58 437.505
COMPASS 1 01 Feb 09:08:36 09:11:48 22° 100° (E) 09:15:08 437.405
DOVE 4 01 Feb 09:18:35 09:22:42 31° 100° (E) 09:26:42 437.250
GOMX 1 01 Feb 09:20:05 09:24:55 53° 101° (E) 09:29:26 467.674
CANX-2 01 Feb 09:31:02 09:35:14 89° 282° (WNW) 09:39:28 2200.000
AAUSAT CUBESAT 2 01 Feb 09:31:54 09:35:47 42° 101° (E) 09:39:45 437.432
CUBEBUG 2 01 Feb 09:37:39 09:38:44 11° 99° (E) 09:40:08 437.445
BRITE-PL 01 Feb 09:40:03 09:45:10 52° 282° (WNW) 09:49:53 437.365/2234.400
SRMSAT 01 Feb 09:54:04 09:56:31 13° 171° (S) 09:59:04 437.500
CUTE 1.7 + AOD 2 01 Feb 09:54:56 09:58:55 43° 281° (W) 10:02:56 437.475
HO-68 01 Feb 10:03:48 10:10:42 51° 284° (WNW) 10:17:37 435.675
Oscar 11 01 Feb 10:06:57 10:11:08 54° 101° (E) 10:15:22 145.826/435.025
UWE-3 01 Feb 10:08:51 10:12:24 27° 100° (E) 10:15:59 435.000/436.395/437.385
CINEMA 3 01 Feb 10:19:41 10:24:09 76° 280° (W) 10:28:26 145.822/145.860
SEEDS 01 Feb 10:22:00 10:25:17 22° 280° (W) 10:28:29 437.485
VELOX 1 01 Feb 10:39:06 10:42:20 21° 101° (E) 10:45:45 145.980
QB50P2 01 Feb 10:40:17 10:41:12 11° 80° (E) 10:42:29 145.880/145.840
ANTELSAT 01 Feb 10:41:19 10:45:12 27° 79° (E) 10:49:12 437.575/2403.000
UKube-1 01 Feb 10:43:54 10:48:15 88° 100° (E) 10:52:37 .
HUMSAT D 01 Feb 10:44:23 10:48:00 30° 101° (E) 10:51:40 437.325/437.525
DELFI C3 01 Feb 10:44:56 10:48:51 49° 281° (WNW) 10:52:48 145.870
COMPASS 1 01 Feb 10:45:18 10:47:26 13° 280° (W) 10:49:19 437.405
TIGRISAT 01 Feb 10:47:01 10:51:05 31° 79° (E) 10:55:16 435.000
QB50P1 01 Feb 10:47:20 10:49:28 14° 80° (E) 10:51:51 145.935-145.965
JUGNU 01 Feb 10:55:24 11:00:47 37° 161° (SSE) 11:06:11 437.505
DOVE 4 01 Feb 10:58:26 11:00:20 12° 281° (W) 11:01:53 437.250
POLYITAN 1 01 Feb 11:02:57 11:06:25 25° 79° (E) 11:09:58 437.675
ZACube-1 01 Feb 11:05:08 11:09:16 53° 281° (W) 11:13:19 437.345
DX 1 01 Feb 11:08:43 11:12:49 38° 281° (W) 11:16:52 434.975-435.025
CUBEBUG 2 01 Feb 11:11:43 11:15:23 27° 281° (W) 11:18:56 437.445
FUNcube-1 01 Feb 11:16:14 11:20:09 37° 281° (W) 11:23:59 145.935
AIST 1 01 Feb 11:17:38 11:21:49 55° 94° (E) 11:25:59
POPSAT HIP 1 01 Feb 11:20:42 11:24:45 44° 79° (E) 11:28:50 437.405
DUCHIFAT 1 01 Feb 11:21:29 11:25:32 45° 79° (E) 11:29:36 145.980
50 SAT 01 Feb 11:27:02 11:31:00 82° 282° (WNW) 11:34:58 437.505
UNISAT 6 01 Feb 11:41:04 11:45:34 46° 259° (WSW) 11:50:05 437.425
SRMSAT 01 Feb 11:41:36 11:46:25 26° 163° (SSE) 11:51:17 437.500
UWE-3 01 Feb 11:47:27 11:48:51 11° 280° (W) 11:49:56 435.000/436.395/437.385
AISAT 01 Feb 11:48:01 11:52:13 39° 281° (WNW) 11:56:22 437.250
NANOSAT C BR1 01 Feb 11:56:43 12:00:51 51° 259° (WSW) 12:04:59 145.865
ESTCUBE 1 01 Feb 12:00:27 12:04:59 79° 282° (WNW) 12:09:33 437.505/2401.250
CUBEBUG 1 01 Feb 12:13:09 12:17:31 56° 281° (WNW) 12:21:53 437.445
QB50P2 01 Feb 12:13:19 12:17:03 29° 259° (W) 12:20:42 145.880/145.840
TISAT 1 01 Feb 12:13:29 12:16:34 20° 101° (E) 12:19:48 437.305
VELOX 1 01 Feb 12:15:45 12:18:49 18° 281° (W) 12:21:41 145.980
BUGSAT 1 01 Feb 12:16:41 12:20:24 35° 259° (W) 12:24:06 437.445
ANTELSAT 01 Feb 12:19:01 12:21:53 15° 260° (W) 12:24:30 437.575/2403.000
QB50P1 01 Feb 12:21:52 12:25:15 22° 259° (W) 12:28:32 145.935-145.965
TIGRISAT 01 Feb 12:25:24 12:27:45 13° 260° (W) 12:29:46 435.000
POLYITAN 1 01 Feb 12:40:10 12:42:15 13° 260° (W) 12:44:04 437.675
JUGNU 01 Feb 12:44:01 12:49:53 79° 339° (NNW) 12:55:45 437.505
BEESAT 2 01 Feb 12:46:45 12:50:44 57° 68° (ENE) 12:54:41 435.950
BEESAT 3 01 Feb 12:57:31 13:01:33 79° 248° (WSW) 13:05:33 437.485
AIST 2 01 Feb 12:59:46 13:03:10 25° 67° (ENE) 13:06:37 435.215
GONETS M04 01 Feb 13:01:22 13:09:21 43° 86° (E) 13:17:32
Oscar 19 01 Feb 13:10:49 13:13:33 15° 79° (E) 13:16:35 437.125/150
SPROUT 01 Feb 13:22:15 13:26:13 35° 281° (W) 13:30:09 437.525
SRMSAT 01 Feb 13:29:55 13:35:48 67° 159° (SSE) 13:41:44 437.500
TISAT 1 01 Feb 13:49:37 13:52:17 16° 280° (W) 13:54:44 437.305
SWISSCUBE 01 Feb 14:04:46 14:09:32 73° 103° (ESE) 14:14:20 437.505
BEESAT 01 Feb 14:19:54 14:24:41 78° 281° (W) 14:29:28 436.000
ITUPSAT 1 01 Feb 14:25:52 14:30:38 67° 282° (WNW) 14:35:26 437.325
JUGNU 01 Feb 14:34:00 14:39:02 29° 342° (NNW) 14:44:03 437.505
AIST 2 01 Feb 14:39:57 14:41:41 12° 246° (WSW) 14:43:07 435.215
Gurwin Techsat 1B 01 Feb 14:48:01 14:52:53 38° 79° (ENE) 14:57:48 435.225
Oscar 19 01 Feb 14:48:07 14:52:48 33° 258° (WSW) 14:57:23 437.125/150
GONETS M04 01 Feb 14:59:20 15:06:06 24° 264° (W) 15:12:27
ITAMSAT 1 01 Feb 15:11:03 15:16:11 68° 257° (WSW) 15:21:19 435.822/435.867
STARS 01 Feb 15:11:32 15:15:33 36° 101° (ESE) 15:19:37 437.465
PCSat 01 Feb 15:16:04 15:21:28 90° 311° (NW) 15:26:53 145.827
SRMSAT 01 Feb 15:19:23 15:25:04 45° 340° (NNW) 15:30:44 437.500
AUBIESAT-1 01 Feb 15:21:21 15:23:20 14° 106° (ESE) 15:25:37 437.475
KKS-1 01 Feb 15:24:53 15:29:21 80° 280° (W) 15:33:47 437.445
VERMONT LUNAR 01 Feb 15:30:09 15:32:23 16° 41° (NE) 15:34:43 437.305
RS-15 01 Feb 15:41:54 15:53:38 70° 69° (ENE) 16:05:50 29.354- 29.394
O/OREOS (USA 219) 01 Feb 15:42:32 15:46:56 59° 285° (WNW) 15:51:20 437.305
HORYU 2 01 Feb 15:52:32 15:56:58 57° 78° (ENE) 16:01:23 437.375
AO-7 01 Feb 16:13:04 16:20:48 44° 75° (ENE) 16:28:39 29.400- 29.500
M-CUBED/EXP-1 PRIME 01 Feb 16:24:08 16:27:39 45° 284° (WNW) 16:31:29 437.505
JUGNU 01 Feb 16:25:43 16:28:41 14° 349° (N) 16:31:32 437.505
Gurwin Techsat 1B 01 Feb 16:30:07 16:32:47 13° 259° (W) 16:35:03 435.225
DANDE 01 Feb 16:46:08 16:49:58 48° 267° (W) 16:52:58 436.750
PHONESAT 2.4 01 Feb 16:47:47 16:51:21 55° 42° (NE) 16:54:58 2401.200-2431.200
AUBIESAT-1 01 Feb 16:55:29 16:58:07 18° 282° (WNW) 17:00:46 437.475
CUSAT 1 01 Feb 16:57:58 17:00:36 19° 268° (W) 17:02:48 437.405
JAS-2 01 Feb 16:58:48 17:04:37 44° 80° (E) 17:09:52 435.910
VERMONT LUNAR 01 Feb 17:07:19 17:10:25 28° 222° (SW) 17:13:31 437.305
SRMSAT 01 Feb 17:10:29 17:14:39 19° 346° (NNW) 17:18:45 437.500
MOZHAYETS 4 01 Feb 17:27:46 17:32:21 79° 101° (ESE) 17:36:58
RS-15 01 Feb 17:57:51 18:06:28 21° 244° (WSW) 18:14:14 29.354- 29.394
CUTE-I 01 Feb 18:01:17 18:04:23 16° 79° (E) 18:07:46 437.470
AO-7 01 Feb 18:06:48 18:13:28 25° 255° (WSW) 18:19:45 29.400- 29.500
PRISM 01 Feb 18:08:50 18:10:35 13° 100° (E) 18:12:38 437.425
JAS-2 01 Feb 18:46:26 18:49:27 13° 256° (WSW) 18:51:52 435.910
SRMSAT 01 Feb 19:03:20 19:04:45 11° 355° (N) 19:06:07 437.500
ISS 01 Feb 19:09:06 19:12:13 44° 306° (NW) 19:15:19 145.825
Cubesat XI-IV 01 Feb 19:20:15 19:25:25 52° 258° (WSW) 19:30:33 437.490
STRAND 1 01 Feb 19:22:16 19:27:20 60° 102° (ESE) 19:32:25 437.568
CUBESAT XI-V 01 Feb 19:30:01 19:34:41 65° 281° (W) 19:39:22 437.345
YUBILEINY 01 Feb 19:31:35 19:40:02 57° 94° (E) 19:48:30 435.215
CUTE-I 01 Feb 19:39:40 19:44:22 31° 258° (WSW) 19:48:59 437.470
PRISM 01 Feb 19:42:33 19:46:00 24° 281° (W) 19:49:22 437.425
JUGNU 01 Feb 20:06:23 20:08:54 13° 9° (N) 20:11:29 437.505
HO-68 01 Feb 20:11:49 20:14:42 13° 78° (ENE) 20:18:13 435.675
BRITE-PL 01 Feb 20:29:27 20:32:32 18° 78° (ENE) 20:35:58 437.365/2234.400
SEEDS 01 Feb 20:53:07 20:55:53 17° 80° (E) 20:58:49 437.485
SRMSAT 01 Feb 20:53:52 20:55:06 11° 5° (N) 20:56:24 437.500
SO-50 01 Feb 21:06:03 21:10:55 68° 247° (WSW) 21:15:40 436.795
COMPASS 1 01 Feb 21:13:43 21:17:17 27° 80° (E) 21:20:56 437.405
YUBILEINY 01 Feb 21:31:27 21:36:51 17° 276° (W) 21:41:29 435.215
AAUSAT CUBESAT 2 01 Feb 21:36:43 21:40:50 51° 79° (E) 21:44:56 437.432
CANX-2 01 Feb 21:38:06 21:42:25 69° 259° (W) 21:46:41 2200.000
DOVE 4 01 Feb 21:38:21 21:43:02 62° 78° (ENE) 21:48:00 437.250
GOMX 1 01 Feb 21:43:02 21:47:44 76° 260° (W) 21:52:45 467.674
DX 1 01 Feb 21:45:11 21:46:42 12° 80° (E) 21:48:32 434.975-435.025
CUBEBUG 2 01 Feb 21:48:17 21:51:33 20° 79° (E) 21:55:03 437.445
FUNcube-1 01 Feb 21:52:07 21:54:02 13° 80° (E) 21:56:17 145.935
JUGNU 01 Feb 21:53:45 21:58:38 26° 17° (NNE) 22:03:34 437.505
HO-68 01 Feb 21:55:18 22:02:23 61° 256° (WSW) 22:09:23 435.675
CUTE 1.7 + AOD 2 01 Feb 22:02:05 22:06:02 34° 259° (W) 22:09:55 437.475
BRITE-PL 01 Feb 22:07:12 22:10:56 23° 261° (W) 22:14:44 437.365/2234.400
Oscar 11 01 Feb 22:15:52 22:20:15 75° 79° (E) 22:24:35 145.826/435.025
UWE-3 01 Feb 22:19:39 22:23:59 42° 79° (E) 22:28:25 435.000/436.395/437.385
UNISAT 6 01 Feb 22:21:30 22:22:43 11° 100° (E) 22:24:16 437.425
AISAT 01 Feb 22:26:23 22:28:26 14° 80° (E) 22:30:46 437.250
SEEDS 01 Feb 22:28:32 22:31:36 18° 260° (W) 22:34:29 437.485
CINEMA 3 01 Feb 22:35:53 22:40:26 46° 259° (W) 22:45:07 145.822/145.860
SRMSAT 01 Feb 22:41:12 22:45:14 19° 14° (NNE) 22:49:20 437.500
QB50P2 01 Feb 22:46:17 22:48:22 14° 100° (E) 22:50:42 145.880/145.840
DELFI C3 01 Feb 22:46:43 22:50:41 46° 259° (W) 22:54:36 145.870
HUMSAT D 01 Feb 22:49:58 22:54:00 39° 79° (E) 22:58:05 437.325/437.525
VELOX 1 01 Feb 22:50:59 22:54:48 30° 79° (E) 22:58:41 145.980
COMPASS 1 01 Feb 22:51:23 22:52:54 11° 260° (W) 22:54:06 437.405
UKube-1 01 Feb 22:53:19 22:57:37 68° 258° (WSW) 23:01:54 .
QB50P1 01 Feb 22:53:39 22:56:25 18° 100° (E) 22:59:22 145.935-145.965
ANTELSAT 01 Feb 22:55:10 22:59:06 37° 101° (ESE) 23:03:04 437.575/2403.000
